﻿測定場所 (Monitoring sites),日付 (Measurement date),時間 (Measurement time),線量率 最大値 (max) μGy/h,線量率 最小値 (min) μGy/h,線量率 平均値 (average) μGy/h,
江戸川 (Edogawa),2016-03-20,23:01～24:00,0.0613,0.0547,0.0577,
江戸川 (Edogawa),2016-03-20,22:01～23:00,0.0613,0.0539,0.0577,
江戸川 (Edogawa),2016-03-20,21:01～22:00,0.0603,0.0553,0.0577,
江戸川 (Edogawa),2016-03-20,20:01～21:00,0.0610,0.0548,0.0571,
江戸川 (Edogawa),2016-03-20,19:01～20:00,0.0605,0.0549,0.0574,
江戸川 (Edogawa),2016-03-20,18:01～19:00,0.0615,0.0535,0.0576,
江戸川 (Edogawa),2016-03-20,17:01～18:00,0.0608,0.0546,0.0575,
江戸川 (Edogawa),2016-03-20,16:01～17:00,0.0620,0.0544,0.0574,
江戸川 (Edogawa),2016-03-20,15:01～16:00,0.0605,0.0539,0.0575,
江戸川 (Edogawa),2016-03-20,14:01～15:00,0.0611,0.0540,0.0574,
江戸川 (Edogawa),2016-03-20,13:01～14:00,0.0607,0.0540,0.0572,
江戸川 (Edogawa),2016-03-20,12:01～13:00,0.0613,0.0532,0.0574,
江戸川 (Edogawa),2016-03-20,11:01～12:00,0.0613,0.0538,0.0575,
江戸川 (Edogawa),2016-03-20,10:01～11:00,0.0599,0.0525,0.0566,
江戸川 (Edogawa),2016-03-20,09:01～10:00,0.0604,0.0534,0.0568,
江戸川 (Edogawa),2016-03-20,08:01～09:00,0.0603,0.0530,0.0569,
江戸川 (Edogawa),2016-03-20,07:01～08:00,0.0607,0.0530,0.0570,
江戸川 (Edogawa),2016-03-20,06:01～07:00,0.0598,0.0524,0.0561,
江戸川 (Edogawa),2016-03-20,05:01～06:00,0.0595,0.0537,0.0566,
江戸川 (Edogawa),2016-03-20,04:01～05:00,0.0591,0.0529,0.0566,
江戸川 (Edogawa),2016-03-20,03:01～04:00,0.0599,0.0538,0.0565,
江戸川 (Edogawa),2016-03-20,02:01～03:00,0.0584,0.0527,0.0560,
江戸川 (Edogawa),2016-03-20,01:01～02:00,0.0595,0.0536,0.0562,
江戸川 (Edogawa),2016-03-20,00:01～01:00,0.0597,0.0533,0.0563,
江戸川 (Edogawa),2016-03-19,23:01～24:00,0.0589,0.0535,0.0564,
江戸川 (Edogawa),2016-03-19,22:01～23:00,0.0606,0.0539,0.0562,
江戸川 (Edogawa),2016-03-19,21:01～22:00,0.0594,0.0526,0.0559,
江戸川 (Edogawa),2016-03-19,20:01～21:00,0.0590,0.0524,0.0561,
江戸川 (Edogawa),2016-03-19,19:01～20:00,0.0593,0.0532,0.0563,
江戸川 (Edogawa),2016-03-19,18:01～19:00,0.0592,0.0531,0.0562,
江戸川 (Edogawa),2016-03-19,17:01～18:00,0.0596,0.0537,0.0563,
江戸川 (Edogawa),2016-03-19,16:01～17:00,0.0603,0.0530,0.0564,
江戸川 (Edogawa),2016-03-19,15:01～16:00,0.0600,0.0531,0.0567,
江戸川 (Edogawa),2016-03-19,14:01～15:00,0.0615,0.0529,0.0576,
江戸川 (Edogawa),2016-03-19,13:01～14:00,0.0659,0.0568,0.0603,
江戸川 (Edogawa),2016-03-19,12:01～13:00,0.0668,0.0580,0.0629,
江戸川 (Edogawa),2016-03-19,11:01～12:00,0.0649,0.0578,0.0611,
江戸川 (Edogawa),2016-03-19,10:01～11:00,0.0645,0.0568,0.0608,
江戸川 (Edogawa),2016-03-19,09:01～10:00,0.0612,0.0549,0.0579,
江戸川 (Edogawa),2016-03-19,08:01～09:00,0.0607,0.0542,0.0577,
江戸川 (Edogawa),2016-03-19,07:01～08:00,0.0606,0.0532,0.0563,
江戸川 (Edogawa),2016-03-19,06:01～07:00,0.0627,0.0541,0.0586,
江戸川 (Edogawa),2016-03-19,05:01～06:00,0.0640,0.0565,0.0603,
江戸川 (Edogawa),2016-03-19,04:01～05:00,0.0657,0.0581,0.0618,
江戸川 (Edogawa),2016-03-19,03:01～04:00,0.0649,0.0563,0.0588,
江戸川 (Edogawa),2016-03-19,02:01～03:00,0.0702,0.0574,0.0631,
江戸川 (Edogawa),2016-03-19,01:01～02:00,0.0716,0.0636,0.0676,
江戸川 (Edogawa),2016-03-19,00:01～01:00,0.0696,0.0626,0.0663,
江戸川 (Edogawa),2016-03-18,23:01～24:00,0.0671,0.0605,0.0641,
江戸川 (Edogawa),2016-03-18,22:01～23:00,0.0642,0.0540,0.0590,
江戸川 (Edogawa),2016-03-18,21:01～22:00,0.0608,0.0543,0.0573,
江戸川 (Edogawa),2016-03-18,20:01～21:00,0.0619,0.0546,0.0576,
江戸川 (Edogawa),2016-03-18,19:01～20:00,0.0597,0.0537,0.0570,
江戸川 (Edogawa),2016-03-18,18:01～19:00,0.0606,0.0539,0.0570,
江戸川 (Edogawa),2016-03-18,17:01～18:00,0.0615,0.0534,0.0572,
江戸川 (Edogawa),2016-03-18,16:01～17:00,0.0599,0.0543,0.0572,
江戸川 (Edogawa),2016-03-18,15:01～16:00,0.0611,0.0542,0.0574,
江戸川 (Edogawa),2016-03-18,14:01～15:00,0.0602,0.0546,0.0576,
江戸川 (Edogawa),2016-03-18,13:01～14:00,0.0607,0.0544,0.0577,
江戸川 (Edogawa),2016-03-18,12:01～13:00,0.0606,0.0543,0.0578,
江戸川 (Edogawa),2016-03-18,11:01～12:00,0.0607,0.0541,0.0579,
江戸川 (Edogawa),2016-03-18,10:01～11:00,0.0603,0.0550,0.0581,
江戸川 (Edogawa),2016-03-18,09:01～10:00,0.0627,0.0542,0.0580,
江戸川 (Edogawa),2016-03-18,08:01～09:00,0.0608,0.0554,0.0583,
江戸川 (Edogawa),2016-03-18,07:01～08:00,0.0609,0.0548,0.0577,
江戸川 (Edogawa),2016-03-18,06:01～07:00,0.0603,0.0536,0.0572,
江戸川 (Edogawa),2016-03-18,05:01～06:00,0.0611,0.0546,0.0573,
江戸川 (Edogawa),2016-03-18,04:01～05:00,0.0598,0.0528,0.0571,
江戸川 (Edogawa),2016-03-18,03:01～04:00,0.0604,0.0532,0.0572,
江戸川 (Edogawa),2016-03-18,02:01～03:00,0.0600,0.0542,0.0570,
江戸川 (Edogawa),2016-03-18,01:01～02:00,0.0604,0.0546,0.0568,
江戸川 (Edogawa),2016-03-18,00:01～01:00,0.0607,0.0544,0.0570,
江戸川 (Edogawa),2016-03-17,23:01～24:00,0.0600,0.0540,0.0569,
江戸川 (Edogawa),2016-03-17,22:01～23:00,0.0601,0.0538,0.0570,
江戸川 (Edogawa),2016-03-17,21:01～22:00,0.0606,0.0536,0.0571,
江戸川 (Edogawa),2016-03-17,20:01～21:00,0.0607,0.0539,0.0570,
江戸川 (Edogawa),2016-03-17,19:01～20:00,0.0603,0.0533,0.0568,
江戸川 (Edogawa),2016-03-17,18:01～19:00,0.0612,0.0533,0.0573,
江戸川 (Edogawa),2016-03-17,17:01～18:00,0.0614,0.0545,0.0576,
江戸川 (Edogawa),2016-03-17,16:01～17:00,0.0627,0.0526,0.0571,
江戸川 (Edogawa),2016-03-17,15:01～16:00,0.0606,0.0554,0.0577,
江戸川 (Edogawa),2016-03-17,14:01～15:00,0.0606,0.0540,0.0572,
江戸川 (Edogawa),2016-03-17,13:01～14:00,0.0617,0.0552,0.0584,
江戸川 (Edogawa),2016-03-17,12:01～13:00,0.0604,0.0552,0.0581,
江戸川 (Edogawa),2016-03-17,11:01～12:00,0.0618,0.0553,0.0582,
江戸川 (Edogawa),2016-03-17,10:01～11:00,0.0635,0.0540,0.0592,
江戸川 (Edogawa),2016-03-17,09:01～10:00,0.0624,0.0553,0.0584,
江戸川 (Edogawa),2016-03-17,08:01～09:00,0.0624,0.0554,0.0581,
江戸川 (Edogawa),2016-03-17,07:01～08:00,0.0602,0.0541,0.0576,
江戸川 (Edogawa),2016-03-17,06:01～07:00,0.0601,0.0547,0.0572,
江戸川 (Edogawa),2016-03-17,05:01～06:00,0.0601,0.0537,0.0574,
江戸川 (Edogawa),2016-03-17,04:01～05:00,0.0607,0.0541,0.0575,
江戸川 (Edogawa),2016-03-17,03:01～04:00,0.0605,0.0538,0.0570,
江戸川 (Edogawa),2016-03-17,02:01～03:00,0.0597,0.0537,0.0568,
江戸川 (Edogawa),2016-03-17,01:01～02:00,0.0604,0.0541,0.0568,
江戸川 (Edogawa),2016-03-17,00:01～01:00,0.0614,0.0538,0.0567,
江戸川 (Edogawa),2016-03-16,23:01～24:00,0.0599,0.0537,0.0572,
江戸川 (Edogawa),2016-03-16,22:01～23:00,0.0599,0.0533,0.0568,
江戸川 (Edogawa),2016-03-16,21:01～22:00,0.0606,0.0529,0.0569,
江戸川 (Edogawa),2016-03-16,20:01～21:00,0.0602,0.0533,0.0567,
江戸川 (Edogawa),2016-03-16,19:01～20:00,0.0593,0.0530,0.0565,
江戸川 (Edogawa),2016-03-16,18:01～19:00,0.0611,0.0530,0.0568,
江戸川 (Edogawa),2016-03-16,17:01～18:00,0.0608,0.0532,0.0565,
江戸川 (Edogawa),2016-03-16,16:01～17:00,0.0611,0.0535,0.0568,
江戸川 (Edogawa),2016-03-16,15:01～16:00,0.0616,0.0536,0.0571,
江戸川 (Edogawa),2016-03-16,14:01～15:00,0.0613,0.0546,0.0576,
江戸川 (Edogawa),2016-03-16,13:01～14:00,0.0607,0.0532,0.0569,
江戸川 (Edogawa),2016-03-16,12:01～13:00,0.0600,0.0537,0.0570,
江戸川 (Edogawa),2016-03-16,11:01～12:00,0.0614,0.0539,0.0570,
江戸川 (Edogawa),2016-03-16,10:01～11:00,0.0609,0.0534,0.0572,
江戸川 (Edogawa),2016-03-16,09:01～10:00,0.0603,0.0539,0.0567,
江戸川 (Edogawa),2016-03-16,08:01～09:00,0.0607,0.0532,0.0564,
江戸川 (Edogawa),2016-03-16,07:01～08:00,0.0595,0.0540,0.0565,
江戸川 (Edogawa),2016-03-16,06:01～07:00,0.0606,0.0532,0.0560,
江戸川 (Edogawa),2016-03-16,05:01～06:00,0.0594,0.0533,0.0563,
江戸川 (Edogawa),2016-03-16,04:01～05:00,0.0598,0.0525,0.0563,
江戸川 (Edogawa),2016-03-16,03:01～04:00,0.0605,0.0532,0.0562,
江戸川 (Edogawa),2016-03-16,02:01～03:00,0.0592,0.0530,0.0561,
江戸川 (Edogawa),2016-03-16,01:01～02:00,0.0587,0.0526,0.0559,
江戸川 (Edogawa),2016-03-16,00:01～01:00,0.0600,0.0519,0.0560,
江戸川 (Edogawa),2016-03-15,23:01～24:00,0.0601,0.0518,0.0563,
江戸川 (Edogawa),2016-03-15,22:01～23:00,0.0603,0.0534,0.0563,
江戸川 (Edogawa),2016-03-15,21:01～22:00,0.0612,0.0534,0.0560,
江戸川 (Edogawa),2016-03-15,20:01～21:00,0.0589,0.0519,0.0558,
江戸川 (Edogawa),2016-03-15,19:01～20:00,0.0587,0.0526,0.0557,
江戸川 (Edogawa),2016-03-15,18:01～19:00,0.0600,0.0530,0.0562,
江戸川 (Edogawa),2016-03-15,17:01～18:00,0.0607,0.0528,0.0559,
江戸川 (Edogawa),2016-03-15,16:01～17:00,0.0608,0.0524,0.0562,
江戸川 (Edogawa),2016-03-15,15:01～16:00,0.0593,0.0538,0.0566,
江戸川 (Edogawa),2016-03-15,14:01～15:00,0.0591,0.0525,0.0561,
江戸川 (Edogawa),2016-03-15,13:01～14:00,0.0601,0.0539,0.0569,
江戸川 (Edogawa),2016-03-15,12:01～13:00,0.0600,0.0540,0.0571,
江戸川 (Edogawa),2016-03-15,11:01～12:00,0.0605,0.0532,0.0566,
江戸川 (Edogawa),2016-03-15,10:01～11:00,0.0608,0.0534,0.0564,
江戸川 (Edogawa),2016-03-15,09:01～10:00,0.0592,0.0529,0.0561,
江戸川 (Edogawa),2016-03-15,08:01～09:00,0.0593,0.0511,0.0556,
江戸川 (Edogawa),2016-03-15,07:01～08:00,0.0581,0.0523,0.0555,
江戸川 (Edogawa),2016-03-15,06:01～07:00,0.0587,0.0534,0.0556,
江戸川 (Edogawa),2016-03-15,05:01～06:00,0.0587,0.0519,0.0552,
江戸川 (Edogawa),2016-03-15,04:01～05:00,0.0585,0.0512,0.0554,
江戸川 (Edogawa),2016-03-15,03:01～04:00,0.0594,0.0520,0.0559,
江戸川 (Edogawa),2016-03-15,02:01～03:00,0.0604,0.0544,0.0578,
江戸川 (Edogawa),2016-03-15,01:01～02:00,0.0665,0.0554,0.0611,
江戸川 (Edogawa),2016-03-15,00:01～01:00,0.0683,0.0597,0.0640,
江戸川 (Edogawa),2016-03-14,23:01～24:00,0.0690,0.0620,0.0659,
江戸川 (Edogawa),2016-03-14,22:01～23:00,0.0709,0.0624,0.0669,
江戸川 (Edogawa),2016-03-14,21:01～22:00,0.0740,0.0647,0.0685,
江戸川 (Edogawa),2016-03-14,20:01～21:00,0.0737,0.0653,0.0693,
江戸川 (Edogawa),2016-03-14,19:01～20:00,0.0735,0.0645,0.0686,
江戸川 (Edogawa),2016-03-14,18:01～19:00,0.0722,0.0637,0.0680,
江戸川 (Edogawa),2016-03-14,17:01～18:00,0.0714,0.0638,0.0674,
江戸川 (Edogawa),2016-03-14,16:01～17:00,0.0710,0.0627,0.0671,
江戸川 (Edogawa),2016-03-14,15:01～16:00,0.0725,0.0636,0.0677,
江戸川 (Edogawa),2016-03-14,14:01～15:00,0.0721,0.0643,0.0688,
江戸川 (Edogawa),2016-03-14,13:01～14:00,0.0725,0.0626,0.0680,
江戸川 (Edogawa),2016-03-14,12:01～13:00,0.0708,0.0633,0.0671,
江戸川 (Edogawa),2016-03-14,11:01～12:00,0.0701,0.0633,0.0660,
江戸川 (Edogawa),2016-03-14,10:01～11:00,0.0689,0.0621,0.0662,
江戸川 (Edogawa),2016-03-14,09:01～10:00,0.0678,0.0605,0.0641,
江戸川 (Edogawa),2016-03-14,08:01～09:00,0.0662,0.0587,0.0628,
江戸川 (Edogawa),2016-03-14,07:01～08:00,0.0642,0.0570,0.0606,
江戸川 (Edogawa),2016-03-14,06:01～07:00,0.0653,0.0581,0.0613,
江戸川 (Edogawa),2016-03-14,05:01～06:00,0.0612,0.0521,0.0577,
江戸川 (Edogawa),2016-03-14,04:01～05:00,0.0602,0.0538,0.0569,
江戸川 (Edogawa),2016-03-14,03:01～04:00,0.0596,0.0536,0.0566,
江戸川 (Edogawa),2016-03-14,02:01～03:00,0.0598,0.0539,0.0564,
江戸川 (Edogawa),2016-03-14,01:01～02:00,0.0619,0.0538,0.0570,
江戸川 (Edogawa),2016-03-14,00:01～01:00,0.0601,0.0526,0.0565,
